CBERS 1 DEB

Satellite information

Favourite Embed

Satellite Type and Status

DEBRISIN ORBIT

Key statistics

Satellite CBERS 1 DEB at a glance.

Uptime

9504

Days in orbit

Revolutions

≈ 14.5

Per day

Orbit

SSO

Sun Synchronous Orbit

Inclination

98.3

Latest

Satellite identification and parameters

Extended collection of information and parameters for CBERS 1 DEB.

Object identification

Identified? True

Debris? True

Object name: CBERS 1 DEB

International designator: 1999-057NS

Object number (NORAD): 30783

Object ID (CCSDS): 30783

Country: PEOPLES REPUBLIC OF CHINA/BRAZIL (CHBZ)

Current information (Y/N): Y

RCS size: SMALL

Orbital parameters

Period: 99.281 minutes

Inclination: 98.2588 deg

SMA: 7102.404 km

Apoapsis: 752.294 km

Periapsis: 696.243 km

RAAN: 67.8646 deg

Eccentricy: 0.00394592

Argument of periapsis: 219.011 deg

Mean anomaly: 239.3782 deg

Mean motion: 14.50423232 rev/day

Mean motion (dot): 0.00009857 rev/day2

B* drag term: 0.0025060296 1/REarth

Two-line elements (TLE)

Creation date: Oct. 21, 2025, 3:26 a.m.

Reference frame: TEME

Reference center: EARTH

Epoch: Oct. 20, 2025, 10:09 p.m. UTC

TLE line 0: 0 CBERS 1 DEB

TLE line 1: 1 30783U 99057NS 25293.92337627 .00009857 00000-0 25060-2 0 9995

TLE line 2: 2 30783 98.2588 67.8646 0039459 219.0110 239.3782 14.50423232976220

Live tracking on map

Real-time ground track for satellite CBERS 1 DEB.

In-orbit conjunctions

A list of the most updated potential collisions computed for object CBERS 1 DEB.

Target Orbit TCA Probability of collision Miss distance Type
CBERS 2B SSO 2024-09-26 05:12:08 0.0001288976 445.0 (m) PAYLOAD
GAOFEN 3 DEB SSO 2024-07-06 02:26:24 0.0001201447 560.0 (m) DEBRIS

Associated space launch

The CBERS (China Brazil Earth Resources Satellite) or ZY 1 (Zi Yuan) satellites are designed for global coverage and include cameras to make optical observations and a data collecting system to gather data on the environment. They are unique systems due to the use of on-board sensors which combine features that are especially designed to resolve the broad range of space and time scales involved in the monitoring and preservation of the ecosystem. They are operated jointly by the China Centre for Resources Satellite Data and Application (CRESDA) and the Brazilian INPE (Instituto Nacional de Pesquisas Espaciais, National Institute of Space Research).

CBERS 1 DEB was lifted into orbit during the mission ‘Long March 4B | Zi Yuan 1-1’, on board a Long March 4B space rocket.

The launch took place on Oct. 14, 1999, 3:15 a.m. from Launch Complex 7.

For more information about the launch, click the button.

Launch to space Long March 4B | Zi Yuan 1-1
Long March 4B | Zi Yuan 1-1

Agency: N/A

Status: Launch Successful

Launch date: Oct. 14, 1999, 3:15 a.m. UTC

Rocket: Long March 4B

Launch pad: Launch Complex 7

Location: Taiyuan Satellite Launch Center, People's Republic of China

...

Latest news about this satellite

There are no fresh news available about this satellite. Check back as we update our databases every day.


Newsletter sign-up

Weekly statistics, charts and insights to help you stay on top of the space industry.